Location: Unspecified
(33.5285°N, 0.0000°E)
Time: 01:49:55
(UTC+00:00)

Vanguard 1 - Visible Passes

Search period start: 04 April 2026 00:00
Search period end: 14 April 2026 00:00
Orbit: 654 x 3817 km, 34.2° (Epoch: 28 March)

Date Brightness Start Highest point End Pass type
(mag) Time Alt. Az. Time Alt. Az. Time Alt. Az.
4 Apr 12.1 01:49:59 57° SE 01:49:59 57° SE 02:00:50 10° E visible
4 Apr 11.4 04:02:29 27° WSW 04:12:25 88° S 04:21:01 10° E visible
4 Apr 13.4 23:55:05 18° E 23:55:05 18° E 23:58:00 10° E visible
5 Apr 12.0 02:07:36 66° S 02:08:36 67° SSE 02:20:18 10° ENE visible
5 Apr 11.4 04:20:06 20° W 04:32:02 87° N 04:40:19 10° E visible
6 Apr 13.1 00:12:39 27° E 00:12:39 27° E 00:18:05 10° E visible
6 Apr 11.9 02:25:09 64° SW 02:28:16 76° SSE 02:39:42 10° ENE visible
6 Apr 11.3 04:37:39 13° W 04:51:39 86° N 04:59:37 10° E visible
7 Apr 12.8 00:30:08 38° ESE 00:30:08 38° ESE 00:37:53 10° E visible
7 Apr 11.8 02:42:38 54° WSW 02:47:58 83° SSE 02:59:04 10° E visible
7 Apr 11.3 04:56:19 10° W 05:11:14 88° N 05:18:55 10° E visible
7 Apr13.922:35:03E22:35:03E21:58:13SSWvisible
8 Apr 12.5 00:47:33 51° ESE 00:47:33 51° ESE 00:57:31 10° ENE visible
8 Apr 11.8 03:00:02 43° WSW 03:07:40 89° S 03:18:25 10° E visible
8 Apr 13.7 22:52:24 13° E 22:52:24 13° E 22:53:42 10° E visible
9 Apr 12.3 01:04:52 65° ESE 01:04:52 65° ESE 01:17:03 10° ENE visible
9 Apr 11.8 03:17:21 33° W 03:27:24 88° N 03:37:47 10° E visible
9 Apr 13.8 20:21:31 10° SSE 20:23:19 12° SSE 20:23:19 12° SSE visible
9 Apr 13.4 22:35:34 10° SSW 23:09:38 22° E 23:13:53 10° E visible
10 Apr 12.2 01:22:07 77° SSE 01:22:22 77° SSE 01:36:31 10° ENE visible
10 Apr 11.7 03:34:35 24° W 03:47:08 87° N 03:57:08 10° E visible
10 Apr 13.7 20:36:43 10° S 20:42:29 17° SSE 20:42:29 17° SSE visible
10 Apr 13.1 22:54:09 10° SW 23:26:47 32° E 23:33:47 10° ENE visible
11 Apr 12.1 01:39:14 71° SW 01:42:10 84° SSE 01:55:57 10° E visible
11 Apr 11.7 03:51:42 17° W 04:06:52 88° N 04:16:28 10° E visible
11 Apr 13.5 20:53:28 10° S 21:31:20 - E 21:01:56 23° SSE visible
11 Apr 12.8 23:13:05 10° SW 23:43:47 44° E 23:53:30 10° ENE visible
12 Apr 12.1 01:56:14 58° WSW 02:02:01 89° SSE 02:15:23 10° E visible
12 Apr 11.6 04:08:40 10° W 04:26:31 87° S 04:35:47 10° ESE visible
12 Apr 13.3 21:11:02 10° SSW 21:48:11 11° E 21:48:28 10° E visible
12 Apr 12.6 23:32:19 10° SW 00:00:37 59° ESE 00:13:08 10° ENE visible
13 Apr 12.1 02:13:02 44° W 02:21:54 88° N 02:34:49 10° E visible
13 Apr 11.6 04:28:50 10° WNW 04:46:05 80° SSW 04:55:00 10° ESE visible
13 Apr 13.6 19:16:40 10° SSE 19:25:44 14° SE 19:29:06 14° ESE visible
13 Apr 13.1 21:29:08 10° SSW 22:04:47 20° E 22:08:47 10° ENE visible
